Wind_Speed
15 15 15 16 15 15 15 12 9 12 14 14 15 16 18 19 20 21 22 22 22 22 22 19 16 14 13 14 14 14 13 13 14 14 12 13 13 12 11 9 8 8 9
13 15 16 16 15 15 15 13 10 11 15 16 16 17 18 19 19 20 20 20 19 19 20 20 18 16 15 15 16 17 16 14 13 13 13 13 12 12 11 10 9 9 9
11 13 15 16 15 14 13 12 11 11 15 17 17 18 18 18 20 19 19 20 20 19 19 20 19 17 16 16 16 19 18 16 15 14 14 13 12 12 12 11 10 9 9
12 12 15 17 17 14 11 10 11 13 14 17 17 17 17 18 17 18 18 18 19 19 19 19 18 17 17 16 17 19 19 17 16 16 15 13 12 12 12 11 10 9 9
13 13 17 19 19 18 15 11 10 13 15 18 18 16 16 17 16 15 15 15 16 17 17 19 18 18 17 17 19 19 19 18 17 17 16 15 13 12 11 10 9 9 8
14 17 20 21 21 21 20 16 13 15 18 20 20 19 16 16 16 14 15 15 16 16 17 18 18 18 18 18 19 20 20 19 19 19 18 16 14 12 11 11 10 9 10
17 21 23 23 23 23 23 21 18 17 19 21 22 21 18 16 16 15 15 16 16 15 16 18 18 18 19 19 19 20 20 20 20 21 20 19 17 15 14 13 12 11 11
20 23 26 26 25 26 26 25 22 20 20 23 24 23 20 17 16 15 14 15 16 16 15 17 20 20 21 21 19 19 19 20 21 22 22 21 19 17 17 16 15 13 13
23 25 26 26 26 27 27 26 24 23 23 24 25 24 22 19 17 16 14 14 17 18 17 18 20 22 24 23 22 21 20 19 20 22 22 22 20 18 18 18 17 16 16
25 25 26 25 24 25 26 25 24 23 24 26 27 27 25 20 17 17 15 14 16 17 18 19 20 22 25 25 23 22 20 19 19 19 19 19 19 19 19 18 19 19 18
25 25 25 25 24 24 26 26 25 23 25 28 29 27 25 22 19 19 17 15 15 14 15 17 19 20 24 26 25 23 20 19 19 18 17 17 18 19 18 17 18 19 19
24 24 25 26 25 25 25 25 23 23 26 30 31 27 25 22 21 20 18 17 15 13 13 14 16 17 20 23 24 23 21 20 20 18 18 17 17 18 18 18 17 17 18
24 25 26 25 25 24 23 22 21 23 26 29 31 28 25 22 22 21 20 18 17 17 15 14 14 15 17 20 22 22 22 21 21 20 20 19 18 17 17 16 15 15 15
25 25 25 24 24 23 21 19 19 21 24 27 28 26 22 21 22 23 22 22 21 20 19 17 15 15 16 18 20 22 22 22 22 21 20 18 17 16 14 13 13 14 16
24 24 24 24 23 22 20 16 15 17 19 21 23 21 19 19 20 20 22 25 25 24 23 22 21 19 18 18 18 19 19 20 21 20 19 19 18 17 16 15 15 16 17
24 23 23 23 22 20 18 15 13 14 17 19 21 22 22 22 21 20 21 24 26 27 27 27 25 24 22 21 20 19 19 20 20 20 20 19 19 19 18 18 18 18 18
25 23 22 21 20 19 16 15 14 15 17 18 21 22 23 22 19 18 19 22 26 28 30 31 30 28 25 24 24 24 23 22 22 22 22 22 22 22 22 21 21 20 19
25 23 21 20 19 19 17 14 13 14 15 16 17 19 21 21 20 18 17 19 24 29 31 32 32 31 28 27 25 25 25 24 24 25 25 24 24 24 23 22 22 21 21
22 21 20 20 19 20 20 18 16 16 15 16 16 16 18 20 21 22 22 20 22 28 34 36 35 33 30 28 26 27 26 25 24 25 26 25 25 25 24 24 23 23 23
19 20 20 20 20 21 21 22 21 20 19 18 18 19 20 20 21 23 24 25 24 28 34 38 39 36 33 32 31 30 28 26 25 26 27 27 26 25 25 26 26 26 25
20 20 20 20 21 22 23 24 25 25 23 22 21 21 21 22 23 23 24 25 25 28 33 38 41 39 37 35 34 32 29 27 27 27 28 28 28 28 28 27 28 28 28
20 19 18 19 20 22 23 25 26 26 26 24 23 23 22 22 23 23 23 24 24 27 33 40 43 41 38 36 35 34 30 28 29 30 28 29 29 30 30 30 30 30 31
20 20 20 19 19 22 23 24 25 26 26 25 24 24 24 24 24 24 24 24 22 22 28 35 40 41 40 39 39 37 34 32 32 31 30 31 32 33 33 32 33 34 34
23 23 22 21 22 21 22 22 22 23 24 25 25 25 25 26 26 26 25 24 22 22 24 31 36 39 38 37 39 39 36 32 32 33 33 33 33 33 33 32 33 34 35
22 22 22 22 22 21 21 22 23 23 24 25 25 26 26 26 27 28 27 25 23 22 22 26 31 32 31 30 30 31 33 33 31 32 34 34 35 34 32 31 32 32 34
21 20 21 22 22 21 22 23 23 24 25 25 25 25 26 27 27 27 27 26 25 23 22 22 24 24 23 23 24 26 30 32 34 35 35 35 36 35 32 33 34 34 34
Wind_Direction
352 352 353 356 349 339 330 314 289 268 261 253 250 250 250 251 251 251 250 249 252 256 257 254 246 249 252 243 228 216 208 206 211 212 207 207 209 220 232 239 241 249 259
344 348 350 354 349 342 338 320 294 265 258 254 252 253 253 254 255 253 251 250 251 255 250 242 239 245 250 241 230 215 207 205 204 205 203 204 213 226 237 243 243 248 260
330 336 337 342 340 338 339 325 301 270 254 253 254 254 255 257 256 253 252 253 257 258 250 240 239 246 248 237 223 208 204 204 206 204 203 208 217 229 237 240 239 249 262
310 321 325 329 325 319 324 318 300 285 263 254 253 252 255 259 256 253 256 257 258 253 245 241 244 246 241 229 211 203 205 208 211 211 211 216 221 227 232 232 233 243 250
293 305 314 316 312 307 306 295 284 279 268 258 255 252 253 255 250 251 254 254 254 248 239 238 242 243 238 225 213 208 209 213 216 218 218 221 225 227 231 229 226 231 235
277 296 303 301 299 295 293 284 268 265 261 256 253 252 251 251 243 245 249 249 247 242 233 231 235 237 233 224 217 215 216 220 223 223 222 223 227 231 235 232 227 224 222
285 295 299 298 291 287 285 278 264 257 254 251 248 248 248 249 242 245 247 242 233 228 224 225 229 231 224 219 218 218 219 222 225 226 226 226 230 234 237 235 228 219 212
290 291 294 293 288 284 281 276 267 258 249 247 248 246 245 241 241 243 243 235 223 222 225 225 227 228 220 216 215 215 218 222 227 229 229 230 232 233 234 232 225 215 206
289 288 289 289 286 283 279 274 268 259 248 244 244 243 241 237 237 237 236 232 223 225 232 233 232 229 222 218 217 216 217 220 224 228 230 231 231 231 231 228 223 216 209
289 287 285 286 284 279 274 269 265 260 248 241 241 240 239 237 233 230 229 227 224 226 231 235 238 233 226 223 221 218 218 221 221 222 222 222 222 223 225 224 223 221 218
291 289 287 286 283 276 267 262 262 261 251 244 242 242 235 230 225 223 225 225 224 225 228 234 238 237 230 227 225 222 221 221 217 215 214 216 217 218 221 222 224 223 226
290 288 287 287 286 281 270 262 259 256 250 245 243 242 233 227 220 220 224 226 226 225 224 228 233 235 230 227 226 224 223 221 219 218 218 221 224 226 228 229 229 229 233
289 286 287 288 288 284 273 263 256 251 246 244 243 240 235 232 221 219 221 224 229 229 224 223 227 233 231 226 226 226 226 225 226 228 229 229 229 231 232 232 235 239 243
291 290 289 287 286 283 276 265 254 248 244 244 246 242 236 237 230 225 224 223 226 231 230 228 227 231 234 232 230 230 229 229 232 234 236 236 235 236 235 237 242 248 252
292 291 288 284 282 279 275 269 249 243 243 246 246 242 244 248 251 249 244 236 229 228 233 234 232 232 234 235 234 232 230 227 229 232 234 235 236 236 237 240 245 251 255
286 287 285 281 278 275 270 264 251 238 238 244 243 242 246 251 252 253 254 248 236 230 233 237 235 234 235 238 238 237 235 231 229 230 231 232 233 234 236 240 243 247 249
278 278 281 281 278 273 268 263 254 241 237 241 243 243 244 244 241 243 248 247 238 232 231 237 239 237 235 238 240 240 239 237 235 233 232 232 233 235 238 241 244 247 249
276 272 274 277 276 271 266 262 255 246 244 247 246 243 241 241 238 238 243 245 238 230 229 233 236 237 235 236 238 240 239 239 239 238 237 236 237 239 242 244 248 250 251
278 269 269 273 273 269 266 263 258 253 250 250 249 246 245 244 242 242 246 251 247 237 231 230 231 234 233 233 235 242 243 242 241 241 242 242 242 243 246 249 251 253 252
278 269 270 274 275 272 268 264 260 257 255 254 253 253 253 252 250 250 251 252 254 243 233 228 227 228 230 234 236 241 244 244 242 241 241 243 245 246 248 250 252 252 251
278 273 270 272 275 275 271 266 263 261 260 259 257 256 256 257 255 256 254 253 252 244 233 225 224 227 230 233 235 239 243 241 242 243 244 245 247 249 250 251 252 252 253
286 279 275 273 273 273 272 268 266 265 264 262 260 258 256 257 256 256 255 254 255 247 238 228 227 227 227 228 232 236 239 240 243 245 247 248 250 253 253 253 253 255 259
298 292 288 285 282 275 271 269 265 264 264 263 262 260 257 255 255 254 254 255 257 249 238 229 224 224 226 229 231 234 238 242 246 246 247 249 251 255 257 259 259 260 261
298 293 288 284 282 279 271 265 263 261 262 262 262 261 259 256 253 252 253 254 253 247 240 232 228 228 232 235 234 233 235 241 246 247 247 249 252 254 258 260 259 258 258
298 292 288 284 281 275 269 265 262 261 262 263 263 262 261 258 254 251 250 250 249 246 243 239 232 231 234 234 235 235 236 239 241 243 245 248 252 254 255 257 257 256 257
300 293 289 285 280 274 268 264 262 262 261 260 260 261 261 260 258 256 253 250 248 245 242 238 235 234 234 234 236 237 239 240 241 243 246 248 251 254 255 256 257 256 256
Height
5874 5873 5871 5869 5867 5864 5862 5860 5860 5859 5859 5861 5863 5864 5866 5867 5869 5871 5873 5874 5875 5876 5876 5877 5878 5878 5878 5879 5881 5882 5883 5885 5886 5888 5890 5892 5894 5895 5895 5896 5896 5897 5897
5872 5870 5868 5866 5865 5863 5860 5858 5858 5857 5856 5857 5859 5861 5862 5863 5865 5866 5868 5870 5871 5871 5872 5873 5874 5875 5875 5876 5878 5880 5881 5883 5885 5887 5889 5891 5892 5893 5894 5895 5895 5896 5896
5869 5867 5865 5864 5862 5859 5857 5855 5854 5854 5854 5853 5855 5857 5858 5859 5861 5862 5863 5865 5866 5867 5868 5869 5870 5871 5871 5873 5874 5877 5879 5881 5883 5886 5888 5890 5891 5892 5893 5893 5894 5894 5895
5866 5865 5863 5861 5860 5857 5855 5853 5851 5850 5852 5852 5852 5854 5854 5855 5856 5857 5858 5859 5860 5862 5863 5865 5866 5867 5868 5870 5871 5874 5877 5879 5882 5884 5886 5888 5889 5890 5891 5891 5892 5893 5893
5863 5862 5860 5859 5857 5854 5852 5851 5849 5847 5847 5848 5848 5850 5851 5851 5851 5853 5854 5855 5856 5857 5859 5861 5862 5864 5865 5867 5869 5872 5874 5877 5879 5881 5884 5886 5887 5888 5889 5889 5890 5891 5891
5859 5857 5856 5855 5853 5850 5848 5847 5845 5843 5842 5842 5843 5844 5846 5847 5848 5849 5850 5851 5853 5854 5856 5857 5860 5861 5862 5864 5866 5869 5871 5874 5876 5878 5881 5883 5884 5885 5886 5887 5888 5888 5889
5853 5852 5850 5849 5847 5845 5844 5842 5840 5839 5838 5837 5838 5839 5841 5843 5844 5845 5846 5848 5850 5851 5852 5854 5856 5858 5860 5861 5863 5865 5868 5870 5873 5875 5877 5880 5881 5882 5883 5885 5885 5886 5887
5848 5846 5844 5843 5841 5840 5838 5836 5835 5835 5834 5834 5833 5834 5836 5839 5840 5842 5843 5844 5846 5848 5849 5850 5852 5854 5856 5858 5860 5862 5864 5867 5869 5871 5873 5876 5878 5879 5880 5882 5883 5884 5885
5841 5839 5837 5836 5834 5833 5831 5830 5830 5829 5829 5829 5829 5830 5832 5834 5836 5838 5839 5840 5842 5845 5847 5847 5848 5850 5852 5855 5856 5858 5860 5863 5865 5867 5869 5871 5874 5875 5876 5878 5879 5881 5883
5835 5832 5830 5828 5826 5825 5824 5823 5823 5823 5824 5824 5824 5825 5827 5830 5832 5834 5835 5836 5838 5840 5842 5843 5844 5846 5849 5851 5853 5855 5857 5860 5862 5863 5865 5867 5869 5871 5873 5874 5876 5878 5879
5827 5825 5823 5821 5818 5817 5816 5816 5816 5817 5818 5818 5819 5820 5821 5824 5826 5829 5831 5833 5835 5836 5838 5839 5840 5842 5845 5848 5850 5852 5854 5856 5858 5860 5861 5863 5866 5868 5869 5871 5872 5874 5875
5820 5819 5817 5814 5811 5810 5809 5809 5809 5810 5811 5813 5814 5815 5816 5819 5821 5824 5827 5829 5831 5833 5834 5836 5837 5838 5840 5843 5847 5849 5851 5853 5855 5857 5858 5860 5862 5864 5865 5867 5868 5869 5871
5813 5812 5811 5808 5805 5804 5803 5803 5803 5803 5804 5806 5808 5809 5811 5813 5817 5819 5822 5825 5827 5830 5831 5832 5834 5835 5836 5839 5842 5845 5847 5849 5851 5853 5855 5856 5857 5859 5861 5862 5863 5865 5866
5806 5805 5804 5801 5799 5798 5797 5797 5797 5797 5798 5800 5802 5803 5806 5808 5811 5814 5817 5820 5823 5825 5827 5828 5830 5832 5833 5835 5837 5840 5843 5845 5847 5849 5851 5852 5853 5855 5856 5857 5859 5860 5862
5800 5799 5797 5795 5794 5793 5792 5792 5792 5792 5794 5795 5797 5799 5801 5804 5806 5809 5812 5815 5818 5820 5822 5824 5827 5829 5830 5832 5833 5836 5838 5840 5842 5844 5846 5847 5849 5850 5852 5853 5855 5856 5858
5794 5793 5791 5790 5789 5788 5788 5788 5788 5788 5790 5791 5793 5795 5797 5799 5801 5804 5806 5808 5811 5814 5817 5819 5822 5825 5826 5828 5829 5831 5833 5835 5837 5839 5841 5842 5844 5846 5847 5849 5851 5853 5854
5788 5787 5785 5784 5783 5783 5784 5784 5785 5786 5786 5787 5788 5790 5791 5793 5795 5797 5800 5802 5804 5807 5810 5813 5816 5819 5821 5823 5825 5827 5829 5830 5832 5834 5836 5837 5839 5841 5843 5845 5846 5847 5849
5781 5780 5779 5778 5778 5778 5779 5780 5781 5783 5784 5784 5784 5785 5786 5788 5790 5792 5793 5795 5797 5799 5803 5806 5809 5812 5815 5817 5819 5822 5824 5826 5827 5829 5831 5832 5834 5836 5838 5839 5840 5841 5843
5774 5774 5774 5773 5773 5773 5773 5774 5776 5778 5779 5780 5781 5782 5783 5783 5785 5786 5787 5788 5789 5792 5795 5798 5802 5805 5808 5811 5813 5816 5818 5820 5822 5824 5825 5826 5828 5830 5832 5834 5835 5836 5838
5770 5769 5769 5768 5768 5768 5768 5769 5770 5772 5773 5774 5776 5777 5778 5779 5780 5780 5780 5781 5782 5784 5786 5790 5795 5799 5801 5804 5806 5809 5812 5814 5815 5817 5818 5820 5821 5824 5826 5828 5830 5831 5832
5765 5765 5764 5763 5762 5762 5762 5762 5763 5765 5766 5768 5769 5771 5772 5773 5774 5774 5774 5774 5775 5776 5778 5782 5787 5791 5794 5797 5800 5802 5805 5807 5808 5809 5812 5814 5816 5818 5820 5822 5824 5825 5826
5760 5759 5758 5757 5756 5756 5755 5755 5756 5757 5758 5760 5762 5763 5764 5765 5766 5767 5767 5768 5768 5768 5770 5774 5779 5783 5787 5790 5793 5795 5798 5800 5801 5803 5805 5807 5809 5810 5812 5814 5816 5817 5818
5755 5753 5751 5750 5750 5749 5749 5748 5749 5750 5751 5752 5754 5756 5757 5758 5759 5761 5761 5761 5761 5761 5762 5765 5770 5774 5779 5782 5785 5789 5791 5792 5794 5796 5797 5798 5800 5802 5804 5806 5807 5809 5810
5749 5746 5745 5744 5743 5742 5741 5741 5742 5743 5744 5745 5747 5748 5749 5751 5752 5754 5755 5756 5756 5756 5757 5759 5763 5767 5770 5773 5777 5780 5783 5785 5786 5788 5789 5790 5791 5794 5796 5797 5798 5800 5801
5742 5740 5738 5737 5736 5735 5735 5735 5735 5736 5737 5738 5740 5741 5742 5743 5744 5746 5747 5748 5750 5751 5751 5753 5755 5758 5761 5764 5767 5771 5774 5777 5779 5779 5780 5782 5783 5785 5787 5788 5788 5790 5791
5736 5734 5732 5731 5730 5729 5728 5728 5728 5729 5730 5731 5732 5733 5734 5735 5736 5738 5740 5741 5743 5745 5746 5747 5749 5752 5754 5757 5759 5762 5765 5767 5769 5771 5771 5773 5774 5775 5778 5778 5778 5779 5780